Location: Ceske Budejovice
(48.9830°N, 14.4670°E)
Time: 16:01:10
(UTC+02:00)

ISS - Visible Passes

Search period start: 26 June 2022 00:00
Search period end: 06 July 2022 00:00
Orbit: 415 x 420 km, 51.6° (Epoch: 26 June)

Date Brightness Start Highest point End Pass type
(mag) Time Alt. Az. Time Alt. Az. Time Alt. Az.
26 Jun -1.0 04:11:20 10° SE 04:11:37 10° SE 04:11:54 10° SE visible
28 Jun -2.1 04:09:26 10° SSW 04:12:10 23° SE 04:14:55 10° E visible
29 Jun -1.6 03:23:05 12° S 03:24:44 16° SE 03:26:50 10° E visible
30 Jun -1.2 02:37:25 10° SE 02:37:33 10° SE 02:37:40 10° SE visible
30 Jun -3.3 04:10:27 10° SW 04:13:43 49° SSE 04:17:00 10° ENE visible
01 Jul -2.8 03:24:41 19° SSW 03:26:34 34° SSE 03:29:41 10° E visible
02 Jul -2.3 02:39:13 23° SSE 02:39:40 23° SE 02:42:26 10° E visible
02 Jul -3.7 04:12:50 10° WSW 04:16:14 86° NNW 04:19:39 10° ENE visible
03 Jul -1.5 01:53:54 15° ESE 01:53:54 15° ESE 01:55:10 10° E visible
03 Jul -3.8 03:26:53 17° WSW 03:29:24 72° SSE 03:32:48 10° ENE visible
04 Jul -3.5 02:41:42 34° SSW 02:42:48 51° SSE 02:46:07 10° ENE visible
04 Jul -3.1 04:16:19 10° W 04:19:41 58° N 04:23:04 10° ENE visible
05 Jul -2.9 01:56:40 35° SE 01:56:40 35° SE 01:59:35 10° E visible
05 Jul -3.4 03:29:48 10° W 03:33:11 68° NNW 03:36:37 10° ENE visible
